Time,TemperatureF,DewpointF,PressureIn,WindDirection,WindDirectionDegrees,WindSpeedMPH,WindSpeedGustMPH,Humidity,HourlyPrecipIn,Conditions,Clouds,dailyrainin,SoftwareType,DateUTC
2014-04-18 00:03:00,67.8,47.5,30.15,East,92,2.0,6.3,48,0.00,,,-99.99,FreeWX-Wi 1.01,2014-04-18 04:03:00,
2014-04-18 00:08:00,67.8,47.5,30.15,East,90,2.0,4.9,48,0.00,,,-99.99,FreeWX-Wi 1.01,2014-04-18 04:08:00,
2014-04-18 00:13:00,67.8,48.0,30.15,East,89,2.0,4.0,49,0.00,,,-99.99,FreeWX-Wi 1.01,2014-04-18 04:13:00,
2014-04-18 00:18:00,67.8,48.0,30.15,East,96,1.0,2.7,49,0.00,,,-99.99,FreeWX-Wi 1.01,2014-04-18 04:18:00,
2014-04-18 00:23:00,67.8,48.0,30.15,East,95,1.0,0.0,49,0.00,,,-99.99,FreeWX-Wi 1.01,2014-04-18 04:23:00,
2014-04-18 00:28:00,67.8,48.0,30.15,North,-999,0.0,0.0,49,0.00,,,-99.99,FreeWX-Wi 1.01,2014-04-18 04:28:00,
2014-04-18 00:33:00,67.6,48.4,30.15,North,-999,0.0,2.2,50,0.00,,,-99.99,FreeWX-Wi 1.01,2014-04-18 04:33:00,
2014-04-18 00:38:00,67.6,48.4,30.15,North,-999,0.0,4.9,50,0.00,,,-99.99,FreeWX-Wi 1.01,2014-04-18 04:38:00,
2014-04-18 00:43:00,67.6,48.4,30.15,North,-999,0.0,4.0,50,0.00,,,-99.99,FreeWX-Wi 1.01,2014-04-18 04:43:00,
2014-04-18 00:48:00,67.6,48.4,30.15,North,-999,0.0,0.0,50,0.00,,,-99.99,FreeWX-Wi 1.01,2014-04-18 04:48:00,
2014-04-18 00:53:00,67.6,48.4,30.15,North,-999,0.0,0.0,50,0.00,,,-99.99,FreeWX-Wi 1.01,2014-04-18 04:53:00,
2014-04-18 00:58:00,67.6,48.9,30.15,North,-999,0.0,0.0,51,0.00,,,-99.99,FreeWX-Wi 1.01,2014-04-18 04:58:00,
2014-04-18 01:03:00,67.5,48.7,30.15,North,-999,0.0,0.0,51,0.00,,,-99.99,FreeWX-Wi 1.01,2014-04-18 05:03:00,
2014-04-18 01:08:00,67.5,48.7,30.15,North,-999,0.0,2.2,51,0.00,,,-99.99,FreeWX-Wi 1.01,2014-04-18 05:08:00,
2014-04-18 01:13:00,67.5,48.7,30.15,North,-999,0.0,3.6,51,0.00,,,-99.99,FreeWX-Wi 1.01,2014-04-18 05:13:00,
2014-04-18 01:18:00,67.5,48.7,30.15,North,-999,0.0,2.2,51,0.00,,,-99.99,FreeWX-Wi 1.01,2014-04-18 05:18:00,
2014-04-18 01:23:00,67.3,48.6,30.15,North,-999,0.0,0.0,51,0.00,,,-99.99,FreeWX-Wi 1.01,2014-04-18 05:23:00,
2014-04-18 01:28:00,67.3,49.1,30.15,North,-999,0.0,0.0,52,0.00,,,-99.99,FreeWX-Wi 1.01,2014-04-18 05:28:00,
2014-04-18 01:33:00,67.3,49.1,30.15,North,-999,0.0,3.1,52,0.00,,,-99.99,FreeWX-Wi 1.01,2014-04-18 05:33:00,
2014-04-18 01:38:00,67.3,49.1,30.12,North,-999,0.0,4.0,52,0.00,,,-99.99,FreeWX-Wi 1.01,2014-04-18 05:38:00,
2014-04-18 01:43:00,67.3,49.1,30.12,North,-999,0.0,4.0,52,0.00,,,-99.99,FreeWX-Wi 1.01,2014-04-18 05:43:00,
2014-04-18 01:48:00,67.1,48.9,30.12,ENE,65,1.0,4.5,52,0.00,,,-99.99,FreeWX-Wi 1.01,2014-04-18 05:48:00,
2014-04-18 01:53:00,67.1,49.5,30.12,ENE,69,1.0,4.5,53,0.00,,,-99.99,FreeWX-Wi 1.01,2014-04-18 05:53:00,
2014-04-18 01:58:00,67.1,49.5,30.12,ENE,64,1.0,3.6,53,0.00,,,-99.99,FreeWX-Wi 1.01,2014-04-18 05:58:00,
2014-04-18 02:03:00,67.1,49.5,30.12,ENE,57,1.0,4.0,53,0.00,,,-99.99,FreeWX-Wi 1.01,2014-04-18 06:03:00,
2014-04-18 02:08:00,67.1,49.5,30.12,NE,43,1.0,0.0,53,0.00,,,-99.99,FreeWX-Wi 1.01,2014-04-18 06:08:00,
2014-04-18 02:13:00,67.1,49.5,30.12,North,-999,0.0,2.7,53,0.00,,,-99.99,FreeWX-Wi 1.01,2014-04-18 06:13:00,
2014-04-18 02:18:00,66.9,49.6,30.12,North,-999,0.0,5.4,54,0.00,,,-99.99,FreeWX-Wi 1.01,2014-04-18 06:18:00,
2014-04-18 02:23:00,66.9,49.6,30.12,NE,36,1.0,4.0,54,0.00,,,-99.99,FreeWX-Wi 1.01,2014-04-18 06:23:00,
2014-04-18 02:28:00,66.9,49.6,30.12,NE,46,1.0,3.6,54,0.00,,,-99.99,FreeWX-Wi 1.01,2014-04-18 06:28:00,
2014-04-18 02:33:00,66.9,49.6,30.12,ENE,68,1.0,5.4,54,0.00,,,-99.99,FreeWX-Wi 1.01,2014-04-18 06:33:00,
2014-04-18 02:38:00,66.9,50.2,30.12,East,81,1.0,4.0,55,0.00,,,-99.99,FreeWX-Wi 1.01,2014-04-18 06:38:00,
2014-04-18 02:43:00,66.9,50.2,30.12,East,83,1.0,3.1,55,0.00,,,-99.99,FreeWX-Wi 1.01,2014-04-18 06:43:00,
2014-04-18 02:48:00,66.9,50.2,30.12,East,83,1.0,4.0,55,0.00,,,-99.99,FreeWX-Wi 1.01,2014-04-18 06:48:00,
2014-04-18 02:53:00,66.9,50.7,30.09,ENE,69,1.0,4.9,56,0.00,,,-99.99,FreeWX-Wi 1.01,2014-04-18 06:53:00,
2014-04-18 02:58:00,66.9,50.7,30.09,ENE,63,1.0,4.0,56,0.00,,,-99.99,FreeWX-Wi 1.01,2014-04-18 06:58:00,
2014-04-18 03:03:00,66.9,50.7,30.09,NE,56,1.0,5.4,56,0.00,,,-99.99,FreeWX-Wi 1.01,2014-04-18 07:03:00,
2014-04-18 03:08:00,66.9,50.7,30.09,ENE,67,1.0,5.4,56,0.00,,,-99.99,FreeWX-Wi 1.01,2014-04-18 07:08:00,
2014-04-18 03:13:00,66.9,50.7,30.09,ENE,65,1.0,5.4,56,0.00,,,-99.99,FreeWX-Wi 1.01,2014-04-18 07:13:00,
2014-04-18 03:18:00,66.9,51.3,30.09,ENE,65,1.0,4.9,57,0.00,,,-99.99,FreeWX-Wi 1.01,2014-04-18 07:18:00,
2014-04-18 03:23:00,66.9,51.3,30.09,ENE,76,2.0,6.3,57,0.00,,,-99.99,FreeWX-Wi 1.01,2014-04-18 07:23:00,
2014-04-18 03:28:00,66.9,51.3,30.09,East,80,2.0,5.4,57,0.00,,,-99.99,FreeWX-Wi 1.01,2014-04-18 07:28:00,
2014-04-18 03:33:00,66.9,51.3,30.09,East,83,2.0,4.9,57,0.00,,,-99.99,FreeWX-Wi 1.01,2014-04-18 07:33:00,
2014-04-18 03:38:00,66.7,51.4,30.09,ENE,78,2.0,4.0,58,0.00,,,-99.99,FreeWX-Wi 1.01,2014-04-18 07:38:00,
2014-04-18 03:43:00,66.7,51.4,30.09,East,84,2.0,5.4,58,0.00,,,-99.99,FreeWX-Wi 1.01,2014-04-18 07:43:00,
2014-04-18 03:48:00,66.7,51.4,30.09,East,84,2.0,5.4,58,0.00,,,-99.99,FreeWX-Wi 1.01,2014-04-18 07:48:00,
2014-04-18 03:53:00,66.7,51.4,30.06,East,84,2.0,5.8,58,0.00,,,-99.99,FreeWX-Wi 1.01,2014-04-18 07:53:00,
2014-04-18 03:58:00,66.7,51.4,30.06,East,86,2.0,6.3,58,0.00,,,-99.99,FreeWX-Wi 1.01,2014-04-18 07:58:00,
2014-04-18 04:03:00,66.7,52.0,30.06,East,86,2.0,4.0,59,0.00,,,-99.99,FreeWX-Wi 1.01,2014-04-18 08:03:00,
2014-04-18 04:08:00,66.7,52.0,30.06,East,85,3.0,5.4,59,0.00,,,-99.99,FreeWX-Wi 1.01,2014-04-18 08:08:00,
2014-04-18 04:13:00,66.7,52.0,30.06,East,84,3.0,5.4,59,0.00,,,-99.99,FreeWX-Wi 1.01,2014-04-18 08:13:00,
2014-04-18 04:18:00,66.7,52.0,30.06,East,81,2.0,4.0,59,0.00,,,-99.99,FreeWX-Wi 1.01,2014-04-18 08:18:00,
2014-04-18 04:23:00,66.7,52.3,30.06,East,80,2.0,5.4,60,0.00,,,-99.99,FreeWX-Wi 1.01,2014-04-18 08:23:00,
2014-04-18 04:28:00,66.7,52.3,30.06,East,83,2.0,5.4,60,0.00,,,-99.99,FreeWX-Wi 1.01,2014-04-18 08:28:00,
2014-04-18 04:33:00,66.7,52.3,30.06,East,83,2.0,5.8,60,0.00,,,-99.99,FreeWX-Wi 1.01,2014-04-18 08:33:00,
2014-04-18 04:38:00,66.7,52.9,30.06,East,87,2.0,8.1,61,0.00,,,-99.99,FreeWX-Wi 1.01,2014-04-18 08:38:00,
2014-04-18 04:43:00,66.7,52.9,30.06,East,84,2.0,5.4,61,0.00,,,-99.99,FreeWX-Wi 1.01,2014-04-18 08:43:00,
2014-04-18 04:48:00,66.7,52.9,30.06,East,90,2.0,5.4,61,0.00,,,-99.99,FreeWX-Wi 1.01,2014-04-18 08:48:00,
2014-04-18 04:53:00,66.7,52.9,30.03,East,91,3.0,6.3,61,0.00,,,-99.99,FreeWX-Wi 1.01,2014-04-18 08:53:00,
2014-04-18 04:58:00,66.7,52.9,30.03,East,86,3.0,7.2,61,0.00,,,-99.99,FreeWX-Wi 1.01,2014-04-18 08:58:00,
2014-04-18 05:03:00,66.7,53.2,30.03,East,84,3.0,5.8,62,0.00,,,-99.99,FreeWX-Wi 1.01,2014-04-18 09:03:00,
2014-04-18 05:08:00,66.7,53.2,30.03,East,82,3.0,5.8,62,0.00,,,-99.99,FreeWX-Wi 1.01,2014-04-18 09:08:00,
2014-04-18 05:13:00,66.7,53.2,30.03,East,84,3.0,5.4,62,0.00,,,-99.99,FreeWX-Wi 1.01,2014-04-18 09:13:00,
2014-04-18 05:18:00,66.7,53.2,30.03,East,84,2.0,5.4,62,0.00,,,-99.99,FreeWX-Wi 1.01,2014-04-18 09:18:00,
2014-04-18 05:23:00,66.7,53.2,30.03,East,81,2.0,4.5,62,0.00,,,-99.99,FreeWX-Wi 1.01,2014-04-18 09:23:00,
2014-04-18 05:28:00,66.6,53.6,30.03,East,80,2.0,4.9,63,0.00,,,-99.99,FreeWX-Wi 1.01,2014-04-18 09:28:00,
2014-04-18 05:33:00,66.6,53.6,30.03,East,81,2.0,5.8,63,0.00,,,-99.99,FreeWX-Wi 1.01,2014-04-18 09:33:00,
2014-04-18 05:38:00,66.6,53.6,30.03,East,81,2.0,4.0,63,0.00,,,-99.99,FreeWX-Wi 1.01,2014-04-18 09:38:00,
2014-04-18 05:43:00,66.7,53.8,30.03,East,81,2.0,5.8,63,0.00,,,-99.99,FreeWX-Wi 1.01,2014-04-18 09:43:00,
2014-04-18 05:48:00,66.7,53.8,30.03,East,81,2.0,5.8,63,0.00,,,-99.99,FreeWX-Wi 1.01,2014-04-18 09:48:00,
2014-04-18 05:54:00,66.7,53.8,30.03,East,83,3.0,6.3,63,0.00,,,-99.99,FreeWX-Wi 1.01,2014-04-18 09:54:00,
2014-04-18 05:59:00,66.7,54.1,30.03,East,88,3.0,4.9,64,0.00,,,-99.99,FreeWX-Wi 1.01,2014-04-18 09:59:00,
2014-04-18 06:04:00,66.7,54.1,30.03,East,87,3.0,5.4,64,0.00,,,-99.99,FreeWX-Wi 1.01,2014-04-18 10:04:00,
2014-04-18 06:09:00,66.7,54.1,30.03,East,87,3.0,5.8,64,0.00,,,-99.99,FreeWX-Wi 1.01,2014-04-18 10:09:00,
2014-04-18 06:14:00,66.7,54.1,30.03,East,91,3.0,6.3,64,0.00,,,-99.99,FreeWX-Wi 1.01,2014-04-18 10:14:00,
2014-04-18 06:19:00,66.7,54.1,30.03,East,89,2.0,4.9,64,0.00,,,-99.99,FreeWX-Wi 1.01,2014-04-18 10:19:00,
2014-04-18 06:24:00,66.7,54.7,30.03,East,89,3.0,5.8,65,0.00,,,-99.99,FreeWX-Wi 1.01,2014-04-18 10:24:00,
2014-04-18 06:29:00,66.7,54.7,30.03,East,88,3.0,5.8,65,0.00,,,-99.99,FreeWX-Wi 1.01,2014-04-18 10:29:00,
2014-04-18 06:34:00,66.7,54.7,30.03,East,91,3.0,5.8,65,0.00,,,-99.99,FreeWX-Wi 1.01,2014-04-18 10:34:00,
2014-04-18 06:39:00,66.9,54.7,30.03,East,93,3.0,8.1,65,0.00,,,-99.99,FreeWX-Wi 1.01,2014-04-18 10:39:00,
2014-04-18 06:44:00,66.9,54.7,30.03,East,94,3.0,8.1,65,0.00,,,-99.99,FreeWX-Wi 1.01,2014-04-18 10:44:00,
2014-04-18 06:49:00,66.9,54.7,30.03,East,94,3.0,6.7,65,0.00,,,-99.99,FreeWX-Wi 1.01,2014-04-18 10:49:00,
2014-04-18 06:54:00,66.9,55.2,30.03,East,93,3.0,8.7,66,0.00,,,-99.99,FreeWX-Wi 1.01,2014-04-18 10:54:00,
2014-04-18 06:59:00,67.1,55.4,30.03,East,93,3.0,6.3,66,0.00,,,-99.99,FreeWX-Wi 1.01,2014-04-18 10:59:00,
2014-04-18 07:04:00,67.1,55.4,30.03,East,92,4.0,8.1,66,0.00,,,-99.99,FreeWX-Wi 1.01,2014-04-18 11:04:00,
2014-04-18 07:09:00,67.1,55.4,30.03,East,91,4.0,5.8,66,0.00,,,-99.99,FreeWX-Wi 1.01,2014-04-18 11:09:00,
2014-04-18 07:14:00,67.3,55.9,30.03,East,89,4.0,8.1,67,0.00,,,-99.99,FreeWX-Wi 1.01,2014-04-18 11:14:00,
2014-04-18 07:19:00,67.3,55.9,30.03,East,89,4.0,6.3,67,0.00,,,-99.99,FreeWX-Wi 1.01,2014-04-18 11:19:00,
2014-04-18 07:24:00,67.3,55.9,30.03,East,91,4.0,8.7,67,0.00,,,-99.99,FreeWX-Wi 1.01,2014-04-18 11:24:00,
2014-04-18 07:29:00,67.5,56.1,30.03,East,92,4.0,8.3,67,0.00,,,-99.99,FreeWX-Wi 1.01,2014-04-18 11:29:00,
2014-04-18 07:34:00,67.5,56.1,30.03,East,93,4.0,6.3,67,0.00,,,-99.99,FreeWX-Wi 1.01,2014-04-18 11:34:00,
2014-04-18 07:39:00,67.5,56.1,30.03,East,97,4.0,8.1,67,0.00,,,-99.99,FreeWX-Wi 1.01,2014-04-18 11:39:00,
2014-04-18 07:44:00,67.6,56.3,30.03,East,101,4.0,5.4,67,0.00,,,-99.99,FreeWX-Wi 1.01,2014-04-18 11:44:00,
2014-04-18 07:49:00,67.6,56.7,30.03,East,99,4.0,5.8,68,0.00,,,-99.99,FreeWX-Wi 1.01,2014-04-18 11:49:00,
2014-04-18 07:54:00,67.6,56.7,30.03,ESE,102,4.0,8.3,68,0.00,,,-99.99,FreeWX-Wi 1.01,2014-04-18 11:54:00,
2014-04-18 07:59:00,67.8,56.8,30.03,ESE,103,4.0,8.1,68,0.00,,,-99.99,FreeWX-Wi 1.01,2014-04-18 11:59:00,
2014-04-18 08:04:00,67.8,56.8,30.03,ESE,104,4.0,8.3,68,0.00,,,-99.99,FreeWX-Wi 1.01,2014-04-18 12:04:00,
2014-04-18 08:09:00,68.0,57.0,30.03,East,100,4.0,6.7,68,0.00,,,-99.99,FreeWX-Wi 1.01,2014-04-18 12:09:00,
2014-04-18 08:14:00,68.0,57.0,30.03,ESE,103,4.0,5.8,68,0.00,,,-99.99,FreeWX-Wi 1.01,2014-04-18 12:14:00,
2014-04-18 08:19:00,68.0,57.0,30.03,ESE,103,3.0,5.8,68,0.00,,,-99.99,FreeWX-Wi 1.01,2014-04-18 12:19:00,
2014-04-18 08:24:00,68.0,57.0,30.03,ESE,105,3.0,6.3,68,0.00,,,-99.99,FreeWX-Wi 1.01,2014-04-18 12:24:00,
2014-04-18 08:29:00,68.2,57.2,30.03,ESE,107,3.0,5.8,68,0.00,,,-99.99,FreeWX-Wi 1.01,2014-04-18 12:29:00,
2014-04-18 08:34:00,68.2,57.2,30.03,ESE,111,3.0,5.4,68,0.00,,,-99.99,FreeWX-Wi 1.01,2014-04-18 12:34:00,
2014-04-18 08:39:00,68.2,57.2,30.03,ESE,114,3.0,6.7,68,0.00,,,-99.99,FreeWX-Wi 1.01,2014-04-18 12:39:00,
2014-04-18 08:44:00,68.4,57.4,30.03,ESE,110,3.0,5.8,68,0.00,,,-99.99,FreeWX-Wi 1.01,2014-04-18 12:44:00,
2014-04-18 08:49:00,68.4,57.4,30.03,ESE,113,3.0,6.3,68,0.00,,,-99.99,FreeWX-Wi 1.01,2014-04-18 12:49:00,
2014-04-18 08:54:00,68.4,57.7,30.03,ESE,111,4.0,6.3,69,0.00,,,-99.99,FreeWX-Wi 1.01,2014-04-18 12:54:00,
2014-04-18 08:59:00,68.5,57.9,30.03,ESE,109,4.0,7.2,69,0.00,,,-99.99,FreeWX-Wi 1.01,2014-04-18 12:59:00,
2014-04-18 09:04:00,68.7,58.1,30.03,ESE,111,4.0,5.8,69,0.00,,,-99.99,FreeWX-Wi 1.01,2014-04-18 13:04:00,
2014-04-18 09:09:00,68.7,58.1,30.03,ESE,108,4.0,7.6,69,0.00,,,-99.99,FreeWX-Wi 1.01,2014-04-18 13:09:00,
2014-04-18 09:14:00,68.9,58.3,30.03,ESE,112,3.0,6.3,69,0.00,,,-99.99,FreeWX-Wi 1.01,2014-04-18 13:14:00,
2014-04-18 09:19:00,69.1,58.5,30.03,ESE,114,3.0,7.6,69,0.00,,,-99.99,FreeWX-Wi 1.01,2014-04-18 13:19:00,
2014-04-18 09:24:00,69.1,58.5,30.00,ESE,109,3.0,8.1,69,0.00,,,-99.99,FreeWX-Wi 1.01,2014-04-18 13:24:00,
2014-04-18 09:29:00,69.3,59.0,30.00,ESE,110,3.0,7.6,70,0.00,,,-99.99,FreeWX-Wi 1.01,2014-04-18 13:29:00,
2014-04-18 09:34:00,69.4,59.2,30.00,ESE,109,4.0,12.8,70,0.00,,,-99.99,FreeWX-Wi 1.01,2014-04-18 13:34:00,
2014-04-18 09:39:00,69.4,59.2,30.03,ESE,112,4.0,8.3,70,0.00,,,-99.99,FreeWX-Wi 1.01,2014-04-18 13:39:00,
2014-04-18 09:44:00,69.6,59.4,30.03,ESE,112,4.0,7.2,70,0.00,,,-99.99,FreeWX-Wi 1.01,2014-04-18 13:44:00,
2014-04-18 09:49:00,69.8,59.5,30.03,ESE,114,4.0,8.3,70,0.00,,,-99.99,FreeWX-Wi 1.01,2014-04-18 13:49:00,
2014-04-18 09:54:00,70.0,59.7,30.00,ESE,117,4.0,8.1,70,0.00,,,-99.99,FreeWX-Wi 1.01,2014-04-18 13:54:00,
2014-04-18 09:59:00,70.2,59.9,30.00,ESE,118,4.0,10.1,70,0.00,,,-99.99,FreeWX-Wi 1.01,2014-04-18 13:59:00,
2014-04-18 10:04:00,70.3,60.1,30.00,ESE,115,4.0,7.6,70,0.00,,,-99.99,FreeWX-Wi 1.01,2014-04-18 14:04:00,
2014-04-18 10:09:00,70.5,60.3,30.00,ESE,115,4.0,6.3,70,0.00,,,-99.99,FreeWX-Wi 1.01,2014-04-18 14:09:00,
2014-04-18 10:14:00,70.7,60.4,30.00,ESE,118,4.0,8.3,70,0.00,,,-99.99,FreeWX-Wi 1.01,2014-04-18 14:14:00,
2014-04-18 10:19:00,70.9,60.6,30.00,ESE,116,4.0,11.0,70,0.00,,,-99.99,FreeWX-Wi 1.01,2014-04-18 14:19:00,
2014-04-18 10:24:00,71.1,60.8,30.00,ESE,116,4.0,10.1,70,0.00,,,-99.99,FreeWX-Wi 1.01,2014-04-18 14:24:00,
2014-04-18 10:29:00,71.1,60.8,30.00,ESE,118,4.0,8.3,70,0.00,,,-99.99,FreeWX-Wi 1.01,2014-04-18 14:29:00,
2014-04-18 10:34:00,71.2,61.0,30.00,ESE,123,4.0,6.3,70,0.00,,,-99.99,FreeWX-Wi 1.01,2014-04-18 14:34:00,
2014-04-18 10:39:00,71.2,61.0,30.03,SE,124,4.0,8.1,70,0.00,,,-99.99,FreeWX-Wi 1.01,2014-04-18 14:39:00,
2014-04-18 10:44:00,71.2,61.0,30.03,ESE,123,4.0,6.7,70,0.00,,,-99.99,FreeWX-Wi 1.01,2014-04-18 14:44:00,
2014-04-18 10:49:00,71.2,61.0,30.03,SE,127,4.0,7.6,70,0.00,,,-99.99,FreeWX-Wi 1.01,2014-04-18 14:49:00,
2014-04-18 10:54:00,71.2,61.0,30.00,SE,130,4.0,9.6,70,0.00,,,-99.99,FreeWX-Wi 1.01,2014-04-18 14:54:00,
2014-04-18 10:59:00,71.4,61.2,30.00,SE,128,4.0,12.8,70,0.00,,,-99.99,FreeWX-Wi 1.01,2014-04-18 14:59:00,
2014-04-18 11:04:00,71.6,61.3,30.00,SE,128,4.0,8.1,70,0.00,,,-99.99,FreeWX-Wi 1.01,2014-04-18 15:04:00,
2014-04-18 11:09:00,71.8,61.5,30.00,SE,131,4.0,9.2,70,0.00,,,-99.99,FreeWX-Wi 1.01,2014-04-18 15:09:00,
2014-04-18 11:14:00,71.8,61.5,30.00,SE,130,4.0,8.1,70,0.00,,,-99.99,FreeWX-Wi 1.01,2014-04-18 15:14:00,
2014-04-18 11:19:00,72.0,61.7,30.00,SE,130,4.0,8.7,70,0.00,,,-99.99,FreeWX-Wi 1.01,2014-04-18 15:19:00,
2014-04-18 11:24:00,72.1,61.9,30.00,SE,127,4.0,11.0,70,0.00,,,-99.99,FreeWX-Wi 1.01,2014-04-18 15:24:00,
2014-04-18 11:29:00,72.3,62.1,30.00,SE,128,4.0,8.1,70,0.00,,,-99.99,FreeWX-Wi 1.01,2014-04-18 15:29:00,
2014-04-18 11:34:00,72.3,62.1,30.00,SE,130,4.0,11.0,70,0.00,,,-99.99,FreeWX-Wi 1.01,2014-04-18 15:34:00,
2014-04-18 11:39:00,72.5,62.1,30.00,SE,135,5.0,8.7,70,0.00,,,-99.99,FreeWX-Wi 1.01,2014-04-18 15:39:00,
2014-04-18 11:44:00,72.5,62.1,30.00,SE,140,5.0,8.3,70,0.00,,,-99.99,FreeWX-Wi 1.01,2014-04-18 15:44:00,
2014-04-18 11:49:00,72.5,62.1,30.00,SE,141,5.0,10.1,70,0.00,,,-99.99,FreeWX-Wi 1.01,2014-04-18 15:49:00,
2014-04-18 11:54:00,72.7,62.8,30.00,SE,146,5.0,8.3,71,0.00,,,-99.99,FreeWX-Wi 1.01,2014-04-18 15:54:00,
2014-04-18 11:59:00,72.7,62.8,30.00,SSE,149,5.0,7.6,71,0.00,,,-99.99,FreeWX-Wi 1.01,2014-04-18 15:59:00,
2014-04-18 12:04:00,72.9,63.0,30.00,SSE,151,5.0,9.6,71,0.00,,,-99.99,FreeWX-Wi 1.01,2014-04-18 16:04:00,
2014-04-18 12:09:00,73.0,63.1,30.00,SSE,150,5.0,8.7,71,0.00,,,-99.99,FreeWX-Wi 1.01,2014-04-18 16:09:00,
2014-04-18 12:14:00,73.0,63.1,30.00,SSE,148,5.0,7.6,71,0.00,,,-99.99,FreeWX-Wi 1.01,2014-04-18 16:14:00,
2014-04-18 12:19:00,73.0,63.1,30.00,SSE,148,4.0,6.3,71,0.00,,,-99.99,FreeWX-Wi 1.01,2014-04-18 16:19:00,
2014-04-18 12:24:00,73.0,63.1,30.00,SSE,147,4.0,7.6,71,0.00,,,-99.99,FreeWX-Wi 1.01,2014-04-18 16:24:00,
2014-04-18 12:29:00,73.2,63.3,30.00,SSE,150,4.0,8.3,71,0.00,,,-99.99,FreeWX-Wi 1.01,2014-04-18 16:29:00,
2014-04-18 12:34:00,73.2,63.3,30.00,SSE,152,4.0,7.6,71,0.00,,,-99.99,FreeWX-Wi 1.01,2014-04-18 16:34:00,
2014-04-18 12:40:00,73.4,63.3,29.97,SSE,154,4.0,6.3,71,0.00,,,-99.99,FreeWX-Wi 1.01,2014-04-18 16:40:00,
2014-04-18 12:45:00,73.6,63.5,29.97,SSE,157,4.0,7.6,71,0.00,,,-99.99,FreeWX-Wi 1.01,2014-04-18 16:45:00,
2014-04-18 12:50:00,73.6,63.5,29.97,SSE,161,4.0,8.3,71,0.00,,,-99.99,FreeWX-Wi 1.01,2014-04-18 16:50:00,
2014-04-18 12:55:00,73.8,64.2,30.00,SSE,161,4.0,6.3,72,0.00,,,-99.99,FreeWX-Wi 1.01,2014-04-18 16:55:00,
2014-04-18 13:00:00,73.8,64.2,30.00,SSE,159,4.0,6.3,72,0.00,,,-99.99,FreeWX-Wi 1.01,2014-04-18 17:00:00,
2014-04-18 13:05:00,73.9,64.4,30.00,SSE,159,4.0,8.1,72,0.00,,,-99.99,FreeWX-Wi 1.01,2014-04-18 17:05:00,
2014-04-18 13:10:00,74.1,64.6,30.00,SSE,160,4.0,7.6,72,0.00,,,-99.99,FreeWX-Wi 1.01,2014-04-18 17:10:00,
2014-04-18 13:15:00,74.3,65.1,30.00,SSE,161,4.0,7.2,73,0.00,,,-99.99,FreeWX-Wi 1.01,2014-04-18 17:15:00,
2014-04-18 13:20:00,74.5,65.3,30.00,SSE,164,4.0,8.3,73,0.00,,,-99.99,FreeWX-Wi 1.01,2014-04-18 17:20:00,
2014-04-18 13:25:00,74.3,65.1,29.97,SSE,165,5.0,8.3,73,0.00,,,-99.99,FreeWX-Wi 1.01,2014-04-18 17:25:00,
2014-04-18 13:30:00,74.3,65.1,29.97,SSE,163,5.0,6.3,73,0.00,,,-99.99,FreeWX-Wi 1.01,2014-04-18 17:30:00,
2014-04-18 13:35:00,74.3,65.1,29.97,SSE,166,4.0,6.3,73,0.00,,,-99.99,FreeWX-Wi 1.01,2014-04-18 17:35:00,
2014-04-18 13:40:00,74.3,65.1,29.97,SSE,163,4.0,4.9,73,0.00,,,-99.99,FreeWX-Wi 1.01,2014-04-18 17:40:00,
2014-04-18 13:45:00,74.3,65.1,29.97,SSE,161,4.0,5.8,73,0.00,,,-99.99,FreeWX-Wi 1.01,2014-04-18 17:45:00,
2014-04-18 13:50:00,74.3,65.1,29.97,SSE,157,4.0,7.6,73,0.00,,,-99.99,FreeWX-Wi 1.01,2014-04-18 17:50:00,
2014-04-18 13:55:00,74.3,65.1,29.97,SSE,158,4.0,5.8,73,0.00,,,-99.99,FreeWX-Wi 1.01,2014-04-18 17:55:00,
2014-04-18 14:00:00,74.3,65.1,29.97,SSE,160,4.0,6.3,73,0.00,,,-99.99,FreeWX-Wi 1.01,2014-04-18 18:00:00,
2014-04-18 14:05:00,74.3,65.1,29.97,SSE,160,4.0,8.1,73,0.00,,,-99.99,FreeWX-Wi 1.01,2014-04-18 18:05:00,
2014-04-18 14:10:00,74.5,65.3,29.97,SSE,164,4.0,6.3,73,0.00,,,-99.99,FreeWX-Wi 1.01,2014-04-18 18:10:00,
2014-04-18 14:15:00,74.5,65.3,29.97,SSE,166,4.0,7.6,73,0.00,,,-99.99,FreeWX-Wi 1.01,2014-04-18 18:15:00,
2014-04-18 14:20:00,74.5,65.3,29.97,SSE,166,4.0,5.4,73,0.00,,,-99.99,FreeWX-Wi 1.01,2014-04-18 18:20:00,
2014-04-18 14:25:00,74.7,65.5,29.97,SSE,166,4.0,6.3,73,0.00,,,-99.99,FreeWX-Wi 1.01,2014-04-18 18:25:00,
2014-04-18 14:30:00,74.7,65.5,29.97,SSE,167,4.0,5.8,73,0.00,,,-99.99,FreeWX-Wi 1.01,2014-04-18 18:30:00,
2014-04-18 14:35:00,74.7,65.5,29.97,SSE,166,4.0,6.3,73,0.00,,,-99.99,FreeWX-Wi 1.01,2014-04-18 18:35:00,
2014-04-18 14:40:00,74.7,65.5,29.97,SSE,159,3.0,6.3,73,0.00,,,-99.99,FreeWX-Wi 1.01,2014-04-18 18:40:00,
2014-04-18 14:45:00,74.8,65.7,29.97,SSE,160,3.0,6.7,73,0.00,,,-99.99,FreeWX-Wi 1.01,2014-04-18 18:45:00,
2014-04-18 14:50:00,74.8,65.7,29.97,SSE,163,4.0,6.3,73,0.00,,,-99.99,FreeWX-Wi 1.01,2014-04-18 18:50:00,
2014-04-18 14:55:00,75.0,65.8,29.94,SSE,167,4.0,6.3,73,0.00,,,-99.99,FreeWX-Wi 1.01,2014-04-18 18:55:00,
2014-04-18 15:00:00,75.0,65.8,29.94,SSE,167,4.0,7.6,73,0.00,,,-99.99,FreeWX-Wi 1.01,2014-04-18 19:00:00,
2014-04-18 15:05:00,74.8,65.7,29.94,SSE,168,4.0,6.3,73,0.00,,,-99.99,FreeWX-Wi 1.01,2014-04-18 19:05:00,
2014-04-18 15:10:00,74.8,65.7,29.94,South,172,4.0,6.7,73,0.00,,,-99.99,FreeWX-Wi 1.01,2014-04-18 19:10:00,
2014-04-18 15:15:00,74.8,65.7,29.94,South,169,4.0,6.3,73,0.00,,,-99.99,FreeWX-Wi 1.01,2014-04-18 19:15:00,
2014-04-18 15:20:00,74.8,65.7,29.94,SSE,166,4.0,8.1,73,0.00,,,-99.99,FreeWX-Wi 1.01,2014-04-18 19:20:00,
2014-04-18 15:25:00,74.7,65.5,29.94,SSE,165,4.0,5.4,73,0.00,,,-99.99,FreeWX-Wi 1.01,2014-04-18 19:25:00,
2014-04-18 15:30:00,74.7,65.5,29.94,SSE,165,4.0,6.3,73,0.00,,,-99.99,FreeWX-Wi 1.01,2014-04-18 19:30:00,
2014-04-18 15:35:00,74.5,65.3,29.94,SSE,165,4.0,5.8,73,0.00,,,-99.99,FreeWX-Wi 1.01,2014-04-18 19:35:00,
2014-04-18 15:40:00,74.5,65.3,29.94,SSE,165,4.0,5.4,73,0.00,,,-99.99,FreeWX-Wi 1.01,2014-04-18 19:40:00,
2014-04-18 15:45:00,74.5,65.3,29.94,SSE,167,4.0,8.3,73,0.00,,,-99.99,FreeWX-Wi 1.01,2014-04-18 19:45:00,
2014-04-18 15:50:00,74.5,65.3,29.94,SSE,167,4.0,5.8,73,0.00,,,-99.99,FreeWX-Wi 1.01,2014-04-18 19:50:00,
2014-04-18 15:55:00,74.5,65.3,29.94,SSE,165,4.0,4.9,73,0.00,,,-99.99,FreeWX-Wi 1.01,2014-04-18 19:55:00,
2014-04-18 16:00:00,74.5,65.3,29.94,SSE,166,4.0,4.0,73,0.00,,,-99.99,FreeWX-Wi 1.01,2014-04-18 20:00:00,
2014-04-18 16:05:00,74.5,64.8,29.94,SSE,166,3.0,0.0,72,0.00,,,-99.99,FreeWX-Wi 1.01,2014-04-18 20:05:00,
2014-04-18 16:10:00,74.5,64.8,29.91,SSE,165,2.0,0.0,72,0.00,,,-99.99,FreeWX-Wi 1.01,2014-04-18 20:10:00,
2014-04-18 16:15:00,74.3,64.8,29.91,SSE,165,1.0,0.0,72,0.00,,,-99.99,FreeWX-Wi 1.01,2014-04-18 20:15:00,
2014-04-18 16:20:00,74.3,64.8,29.91,South,172,1.0,6.3,72,0.00,,,-99.99,FreeWX-Wi 1.01,2014-04-18 20:20:00,
2014-04-18 16:25:00,74.1,64.6,29.94,South,180,1.0,10.5,72,0.00,,,-99.99,FreeWX-Wi 1.01,2014-04-18 20:25:00,
2014-04-18 16:30:00,73.6,64.0,29.94,South,187,2.0,7.6,72,0.00,,,-99.99,FreeWX-Wi 1.01,2014-04-18 20:30:00,
2014-04-18 16:35:00,73.4,63.9,29.94,South,191,2.0,4.0,72,0.00,,,-99.99,FreeWX-Wi 1.01,2014-04-18 20:35:00,
2014-04-18 16:40:00,73.2,63.7,29.91,SSW,193,2.0,3.1,72,0.00,,,-99.99,FreeWX-Wi 1.01,2014-04-18 20:40:00,
2014-04-18 16:45:00,73.2,63.7,29.91,SSW,192,2.0,3.1,72,0.00,,,-99.99,FreeWX-Wi 1.01,2014-04-18 20:45:00,
2014-04-18 16:50:00,73.2,63.7,29.91,South,182,1.0,0.0,72,0.00,,,-99.99,FreeWX-Wi 1.01,2014-04-18 20:50:00,
2014-04-18 16:55:00,73.2,63.7,29.91,North,-999,0.0,0.0,72,0.00,,,-99.99,FreeWX-Wi 1.01,2014-04-18 20:55:00,
2014-04-18 17:00:00,73.2,64.0,29.91,North,-999,0.0,4.0,73,0.00,,,-99.99,FreeWX-Wi 1.01,2014-04-18 21:00:00,
2014-04-18 17:05:00,73.2,64.0,29.91,South,169,1.0,6.3,73,0.00,,,-99.99,FreeWX-Wi 1.01,2014-04-18 21:05:00,
2014-04-18 17:10:00,73.0,63.9,29.91,SSE,168,1.0,6.3,73,0.00,,,-99.99,FreeWX-Wi 1.01,2014-04-18 21:10:00,
2014-04-18 17:15:00,73.0,63.9,29.91,SSE,166,2.0,8.3,73,0.00,,,-99.99,FreeWX-Wi 1.01,2014-04-18 21:15:00,
2014-04-18 17:20:00,73.0,63.9,29.91,SSE,165,4.0,12.8,73,0.00,,,-99.99,FreeWX-Wi 1.01,2014-04-18 21:20:00,
2014-04-18 17:25:00,72.9,63.7,29.91,SSE,167,5.0,10.5,73,0.00,,,-99.99,FreeWX-Wi 1.01,2014-04-18 21:25:00,
2014-04-18 17:30:00,72.7,63.1,29.91,South,171,6.0,11.0,72,0.00,,,-99.99,FreeWX-Wi 1.01,2014-04-18 21:30:00,
2014-04-18 17:35:00,72.3,62.8,29.91,South,174,7.0,12.8,72,0.00,,,-99.99,FreeWX-Wi 1.01,2014-04-18 21:35:00,
2014-04-18 17:40:00,72.0,62.4,29.94,South,176,7.0,14.1,72,0.00,,,-99.99,FreeWX-Wi 1.01,2014-04-18 21:40:00,
2014-04-18 17:45:00,71.8,62.2,29.94,South,181,8.0,11.0,72,0.00,,,-99.99,FreeWX-Wi 1.01,2014-04-18 21:45:00,
2014-04-18 17:50:00,71.6,62.1,29.94,South,182,7.0,10.1,72,0.00,,,-99.99,FreeWX-Wi 1.01,2014-04-18 21:50:00,
2014-04-18 17:55:00,71.4,61.9,29.91,South,182,7.0,8.3,72,0.00,,,-99.99,FreeWX-Wi 1.01,2014-04-18 21:55:00,
2014-04-18 18:00:00,71.4,61.9,29.91,South,180,6.0,8.1,72,0.00,,,-99.99,FreeWX-Wi 1.01,2014-04-18 22:00:00,
2014-04-18 18:05:00,71.4,61.9,29.91,South,178,6.0,7.6,72,0.00,,,-99.99,FreeWX-Wi 1.01,2014-04-18 22:05:00,
2014-04-18 18:10:00,71.6,61.7,29.91,South,176,5.0,7.6,71,0.00,,,-99.99,FreeWX-Wi 1.01,2014-04-18 22:10:00,
2014-04-18 18:15:00,71.6,61.7,29.91,South,174,5.0,6.3,71,0.00,,,-99.99,FreeWX-Wi 1.01,2014-04-18 22:15:00,
2014-04-18 18:20:00,71.6,61.7,29.91,South,177,5.0,7.2,71,0.00,,,-99.99,FreeWX-Wi 1.01,2014-04-18 22:20:00,
2014-04-18 18:25:00,71.6,61.7,29.91,South,177,4.0,7.2,71,0.00,,,-99.99,FreeWX-Wi 1.01,2014-04-18 22:25:00,
2014-04-18 18:30:00,71.6,61.7,29.91,South,179,4.0,6.3,71,0.00,,,-99.99,FreeWX-Wi 1.01,2014-04-18 22:30:00,
2014-04-18 18:35:00,71.6,61.7,29.91,South,180,4.0,8.7,71,0.00,,,-99.99,FreeWX-Wi 1.01,2014-04-18 22:35:00,
2014-04-18 18:40:00,71.6,61.7,29.91,South,181,5.0,6.3,71,0.00,,,-99.99,FreeWX-Wi 1.01,2014-04-18 22:40:00,
2014-04-18 18:45:00,71.6,61.7,29.91,South,179,5.0,8.7,71,0.00,,,-99.99,FreeWX-Wi 1.01,2014-04-18 22:45:00,
2014-04-18 18:50:00,71.4,61.5,29.91,South,177,5.0,8.7,71,0.00,,,-99.99,FreeWX-Wi 1.01,2014-04-18 22:50:00,
2014-04-18 18:55:00,71.4,61.5,29.91,South,179,5.0,6.3,71,0.00,,,-99.99,FreeWX-Wi 1.01,2014-04-18 22:55:00,
2014-04-18 19:00:00,71.4,61.5,29.91,South,180,4.0,6.3,71,0.00,,,-99.99,FreeWX-Wi 1.01,2014-04-18 23:00:00,
2014-04-18 19:05:00,71.4,61.5,29.91,South,178,4.0,6.7,71,0.00,,,-99.99,FreeWX-Wi 1.01,2014-04-18 23:05:00,
2014-04-18 19:10:00,71.4,61.5,29.91,South,180,4.0,5.8,71,0.00,,,-99.99,FreeWX-Wi 1.01,2014-04-18 23:10:00,
2014-04-18 19:15:00,71.2,61.3,29.91,South,181,4.0,8.7,71,0.00,,,-99.99,FreeWX-Wi 1.01,2014-04-18 23:15:00,
2014-04-18 19:20:00,71.2,61.3,29.91,South,182,4.0,4.5,71,0.00,,,-99.99,FreeWX-Wi 1.01,2014-04-18 23:20:00,
2014-04-18 19:25:00,71.2,61.3,29.91,South,177,3.0,4.0,71,0.00,,,-99.99,FreeWX-Wi 1.01,2014-04-18 23:25:00,
2014-04-18 19:30:00,71.2,61.3,29.91,South,169,3.0,4.9,71,0.00,,,-99.99,FreeWX-Wi 1.01,2014-04-18 23:30:00,
2014-04-18 19:35:00,71.1,61.2,29.91,SSE,164,3.0,5.4,71,0.00,,,-99.99,FreeWX-Wi 1.01,2014-04-18 23:35:00,
2014-04-18 19:40:00,71.1,60.8,29.91,SSE,165,3.0,5.8,70,0.00,,,-99.99,FreeWX-Wi 1.01,2014-04-18 23:40:00,
2014-04-18 19:45:00,70.9,60.6,29.91,SSE,167,2.0,5.8,70,0.00,,,-99.99,FreeWX-Wi 1.01,2014-04-18 23:45:00,
2014-04-18 19:50:00,70.9,60.6,29.91,South,171,2.0,4.0,70,0.00,,,-99.99,FreeWX-Wi 1.01,2014-04-18 23:50:00,
2014-04-18 19:55:00,70.9,60.6,29.91,South,179,2.0,4.9,70,0.00,,,-99.99,FreeWX-Wi 1.01,2014-04-18 23:55:00,
2014-04-18 20:00:00,70.7,60.4,29.91,South,189,2.0,2.7,70,0.00,,,-99.99,FreeWX-Wi 1.01,2014-04-19 00:00:00,
2014-04-18 20:05:00,70.7,60.4,29.91,SSW,195,1.0,0.0,70,0.00,,,-99.99,FreeWX-Wi 1.01,2014-04-19 00:05:00,
2014-04-18 20:10:00,70.7,60.4,29.91,SSW,192,1.0,3.1,70,0.00,,,-99.99,FreeWX-Wi 1.01,2014-04-19 00:10:00,
2014-04-18 20:15:00,70.7,60.4,29.91,North,-999,0.0,0.0,70,0.00,,,-99.99,FreeWX-Wi 1.01,2014-04-19 00:15:00,
2014-04-18 20:20:00,70.5,60.3,29.91,North,-999,0.0,0.0,70,0.00,,,-99.99,FreeWX-Wi 1.01,2014-04-19 00:20:00,
2014-04-18 20:25:00,70.5,60.3,29.91,North,-999,0.0,0.0,70,0.00,,,-99.99,FreeWX-Wi 1.01,2014-04-19 00:25:00,
2014-04-18 20:30:00,70.5,60.3,29.91,North,-999,0.0,0.0,70,0.00,,,-99.99,FreeWX-Wi 1.01,2014-04-19 00:30:00,
2014-04-18 20:35:00,70.5,60.3,29.91,North,-999,0.0,0.0,70,0.00,,,-99.99,FreeWX-Wi 1.01,2014-04-19 00:35:00,
2014-04-18 20:40:00,70.3,60.1,29.88,North,-999,0.0,0.0,70,0.00,,,-99.99,FreeWX-Wi 1.01,2014-04-19 00:40:00,
2014-04-18 20:45:00,70.3,60.1,29.88,North,-999,0.0,0.0,70,0.00,,,-99.99,FreeWX-Wi 1.01,2014-04-19 00:45:00,
2014-04-18 20:50:00,70.3,60.1,29.88,North,-999,0.0,0.0,70,0.00,,,-99.99,FreeWX-Wi 1.01,2014-04-19 00:50:00,
2014-04-18 20:55:00,70.3,60.1,29.88,North,-999,0.0,0.0,70,0.00,,,-99.99,FreeWX-Wi 1.01,2014-04-19 00:55:00,
2014-04-18 21:01:00,70.3,60.4,29.88,North,-999,0.0,0.0,71,0.00,,,-99.99,FreeWX-Wi 1.01,2014-04-19 01:01:00,
2014-04-18 21:06:00,70.2,60.3,29.88,North,-999,0.0,0.0,71,0.00,,,-99.99,FreeWX-Wi 1.01,2014-04-19 01:06:00,
2014-04-18 21:11:00,70.2,60.3,29.91,North,-999,0.0,0.0,71,0.00,,,-99.99,FreeWX-Wi 1.01,2014-04-19 01:11:00,
2014-04-18 21:16:00,70.2,60.3,29.91,North,-999,0.0,2.7,71,0.00,,,-99.99,FreeWX-Wi 1.01,2014-04-19 01:16:00,
2014-04-18 21:21:00,70.2,60.3,29.91,North,-999,0.0,0.0,71,0.00,,,-99.99,FreeWX-Wi 1.01,2014-04-19 01:21:00,
2014-04-18 21:26:00,70.2,60.3,29.91,North,-999,0.0,0.0,71,0.00,,,-99.99,FreeWX-Wi 1.01,2014-04-19 01:26:00,
2014-04-18 21:31:00,70.0,60.1,29.91,North,-999,0.0,2.7,71,0.00,,,-99.99,FreeWX-Wi 1.01,2014-04-19 01:31:00,